Вернуться в каталог

STARLINK-5324

АктивенСвязьVLEO
NORAD 55677·PAYLOAD·🇺🇸 United States

Запущен Feb 17, 2023 с Vandenberg Space Force Base

Loading…

Ближайшие Пролёты (ближайшие 24 часа)

TLE

СвежийSource: CelesTrak SupGP

Эпоха: Sep 15, 2026, 02:20 UTC

1 55677C 23021BB  26258.09770833 -.00004510  00000+0 -37802-3 0  2580
2 55677  70.0032  26.8469 0003085 269.8948 326.2988 14.98326980    10

Отслеживайте STARLINK-5324 в реальном времени с AllMySat

Download on the App Store